Regional Weather Roundup
Issued by NWS Charleston, WV

Home | Current Version | Previous Version | Graphics & Text | Print | Product List | Glossary On
Versions: 1 2 3 4 5 6 7 8 9 10 11 12 13 14 15 16 17 18 19 20 21 22 23 24 25 26 27 28 29 30 31 32 33 34 35 36 37 38 39 40 41 42 43 44 45 46 47 48 49 50
000
ASUS41 KRLX 151210
RWRRLX
West Virginia Regional Weather Roundup
National Weather Service Charleston WV
800 AM EDT MON SEP 15 2014

Note: "fair" indicates few or no clouds below 12,000 feet with no
significant weather and/or obstructions to visibility.

WVZ003-151300-
Northern Panhandle of West Virginia

CITY           SKY/WX    TMP DP  RH WIND       PRES   REMARKS
WHEELING       CLEAR     45  43  93 CALM      30.25R FOG
$$

WVZ009-151300-
Northwest West Virginia

CITY           SKY/WX    TMP DP  RH WIND       PRES   REMARKS
PARKERSBURG    FOG       47  46  97 CALM      30.27R VSB 1/16
$$

WVZ006-151300-
Western West Virginia

CITY           SKY/WX    TMP DP  RH WIND       PRES   REMARKS
HUNTINGTON     FOG       49  49 100 CALM      30.23R VSB<1/4
$$

WVZ015-151300-
West Central West Virginia

CITY           SKY/WX    TMP DP  RH WIND       PRES   REMARKS
CHARLESTON     FOG       50  50 100 NE3       30.24R VSB 1/8
$$

WVZ031-151300-
North Central West Virginia

CITY           SKY/WX    TMP DP  RH WIND       PRES   REMARKS
CLARKSBURG     FOG       50  49  96 S3        30.26R VSB<1/4
MORGANTOWN     SUNNY     48  44  86 CALM      30.27R
$$

WVZ035-042-045-151300-
South Central West Virginia

CITY           SKY/WX    TMP DP  RH WIND       PRES   REMARKS
BECKLEY        FOG       57  56  96 S3        30.25S VSB 1
BLUEFIELD      FOG       59  56  89 CALM      30.27S VSB 1/4
LEWISBURG      FOG       54  52  94 NE3       30.27R VSB 1/2
$$

WVZ047-151300-
Northern Mountains of West Virginia

CITY           SKY/WX    TMP DP  RH WIND       PRES   REMARKS
ELKINS         FOG       51  50  96 CALM      30.28R VSB 1/4
$$

WVZ052-151300-
Eastern Panhandle of West Virginia

CITY           SKY/WX    TMP DP  RH WIND       PRES   REMARKS
MARTINSBURG    SUNNY     49  45  86 CALM      30.26S
PETERSBURG     FOG       51  48  92 CALM      30.28R VSB 1/4
$$



USA.gov is the U.S. government's official web portal to all federal, state and local government web resources and services.